Location: Newark
(51.2625°N, 13.3939°E)
Time: 07:21:11
(UTC+00:00)

Explorer 7 - Pass Details

Date: 16 November 2019
Orbit: 485 x 680 km, 50.3° (Epoch: 08 December)

Event Time Altitude Azimuth Distance (km) Brightness Sun altitude
Rises 03:51:45 0° 274° (W) 2,791 - -23.7°
Reaches altitude 10° 03:54:05 10° 273° (W) 1,857 - -23.3°
Maximum altitude 03:58:17 74° 189° (S) 564 - -22.6°
Exits shadow 03:58:20 74° 182° (S) 564 6.7 -22.6°
Drops below altitude 10° 04:02:14 10° 104° (ESE) 1,746 10.5 -22.0°
Sets 04:04:23 0° 103° (ESE) 2,607 11.7 -21.7°
